CAPE
0 0 0 0 0 0 0 0 0 0 50 290 276 314 254 398 476 759 965 840 586 1287 1400 1876 1840 2094 1601 1863 1759 1508 883 451 472 83 149 968 317 603 311 175 11 16 7
0 0 0 0 0 0 0 0 0 0 162 334 141 327 799 690 800 949 803 616 563 797 1542 1696 1798 2120 1832 1864 1688 1837 1076 207 2 2 11 573 157 0 57 50 33 54 32
0 0 0 0 0 0 0 0 0 1 240 574 285 404 608 531 879 900 703 781 936 481 1528 1735 1782 2055 1946 1960 1611 1523 591 187 14 0 7 0 6 0 0 0 0 38 73
0 0 0 0 0 0 0 0 0 30 108 465 395 350 303 305 158 147 398 347 970 594 1621 1684 1783 1907 1860 1842 1789 1398 979 251 0 0 0 4 2 0 0 2 0 0 21
0 0 0 0 0 0 0 0 92 76 70 91 227 440 225 74 65 142 535 685 925 595 1126 1611 1916 2055 2178 1966 1733 1501 755 0 0 0 0 0 0 0 0 0 0 0 0
0 8 4 0 0 0 0 0 0 25 103 13 263 471 276 166 77 132 829 540 918 795 1165 1484 1808 2039 2236 2031 1851 1446 447 0 0 0 0 0 0 0 0 0 0 0 0
4 5 38 20 0 0 0 0 0 0 29 139 70 395 678 452 25 69 298 573 379 640 1034 1399 1742 2113 2351 2222 1900 1078 248 10 0 0 0 0 0 0 0 0 0 0 0
53 18 79 58 85 60 87 176 251 140 296 297 152 188 534 892 689 84 62 467 573 869 1604 1529 1239 1911 2380 2364 1679 953 276 12 0 0 0 0 0 0 0 0 0 0 0
3 17 20 124 180 334 363 457 463 525 681 644 588 547 512 415 615 451 54 183 174 1991 1701 1245 1320 1741 2380 2333 1617 981 427 36 0 0 0 0 0 0 0 0 0 0 0
70 52 51 47 82 446 664 810 701 636 820 954 1073 934 1041 1098 525 371 45 0 58 1016 1860 1083 1240 1321 2044 2099 1671 896 247 40 0 0 0 0 0 0 0 0 0 0 0
176 160 165 184 195 236 393 921 1121 951 1110 1242 1206 1389 1405 1259 1161 709 71 330 419 414 1381 1445 1411 1490 1624 2098 1625 1057 332 90 0 0 0 0 0 0 0 0 0 0 0
870 513 486 362 431 397 294 300 1437 1366 1248 1421 1444 1425 1466 1520 1398 1093 531 603 515 725 1275 1476 1349 1237 1634 2120 1677 1338 651 85 3 0 0 0 0 0 0 0 0 0 0
622 346 88 57 487 435 383 315 619 934 1867 2272 2064 1767 1534 1516 1415 1295 1164 656 599 234 383 1100 1085 946 982 1697 1864 1461 841 81 0 0 0 0 0 0 0 0 0 0 0
343 349 400 118 41 424 394 363 213 8 0 526 2254 2186 1816 1671 1619 1482 1420 1251 826 437 185 313 750 830 889 1352 1749 1414 688 0 0 0 0 0 0 0 0 0 0 0 0
218 252 281 316 344 291 508 417 71 12 0 0 812 1814 2136 2059 1953 1854 1682 1675 1599 1267 775 515 624 1208 1326 1364 1502 1185 304 0 0 0 0 0 0 0 0 0 0 0 0
30 42 213 227 227 130 280 319 0 0 43 362 900 1427 2156 2238 1972 2064 2029 2005 1969 1981 1688 1209 908 821 983 1639 1537 1147 135 0 0 0 0 0 0 0 0 0 0 0 0
52 99 106 195 217 351 616 579 389 296 139 1096 1393 1925 2358 2366 2280 2286 2241 2318 2328 2352 2260 2020 1619 1309 1025 933 1139 932 0 0 0 0 0 0 0 0 0 0 0 0 0
99 216 225 260 203 168 145 255 545 792 1301 1721 1360 2207 2638 2533 2463 2649 2575 2594 2676 2676 2647 2377 2176 1880 1424 1093 719 607 0 0 0 0 0 0 0 0 0 0 0 0 0
140 324 360 267 199 180 180 391 708 525 801 958 1261 1159 1937 2821 2570 2865 2905 2902 2819 2723 2652 2608 2403 2298 1831 1119 494 285 0 0 0 0 0 0 0 0 0 0 0 0 0
78 314 257 194 165 168 177 392 279 158 180 296 470 1073 2102 2406 2535 2702 2950 2943 3034 2929 2749 2597 2601 2260 1921 971 533 450 62 0 0 0 0 0 0 0 0 0 0 0 0
29 133 127 112 115 96 128 170 187 179 107 217 571 1140 1924 2222 2420 2329 2578 2449 2513 2521 2478 2474 2497 2341 1957 894 452 361 122 0 0 0 0 0 0 0 0 0 0 0 0
45 36 40 30 96 81 103 124 108 40 165 356 582 1078 1723 1944 2191 2234 2530 2675 2567 2611 2460 2197 1973 2225 2101 1255 343 309 158 0 0 0 0 0 0 0 0 0 0 0 0
21 5 1 9 19 2 2 62 34 61 204 422 583 763 1260 2167 2173 2447 2570 2628 2545 2448 2246 1958 1873 2068 2201 1442 435 176 41 0 0 0 0 0 0 0 0 0 0 0 0
16 0 0 11 0 0 0 0 2 46 165 444 446 452 804 1023 1254 1446 1469 1672 1724 1742 1715 1493 1351 1414 1456 985 241 8 0 0 0 0 0 0 0 0 0 0 0 0 0
4 0 0 0 1 0 0 0 0 2 96 239 231 395 630 809 981 445 449 664 118 142 395 308 343 709 815 323 0 10 42 0 0 0 0 0 0 0 0 0 0 0 0
16 3 0 0 0 0 0 0 0 0 9 71 117 252 564 669 895 891 584 0 0 0 0 0 0 0 0 0 0 0 2 0 0 0 0 0 0 0 0 0 0 0 0
CIN
-0 -0 -0 -0 -0 -0 -0 -0 -0 -0 -250 -117 -102 -89 -98 -97 -55 -47 -31 -47 -71 -38 -32 -24 -30 -41 -38 -32 -35 -36 -92 -156 -167 -264 -261 -54 -201 -117 -202 -264 -349 -257 -124
-0 -0 -0 -0 -0 -0 -0 -0 -0 -0 -206 -132 -204 -118 -51 -73 -74 -51 -55 -47 -61 -53 -28 -23 -28 -24 -25 -24 -41 -36 -65 -248 -131 -97 -45 -90 -231 -0 -316 -360 -333 -225 -250
-0 -0 -0 -0 -0 -0 -0 -0 -0 -108 -177 -105 -170 -129 -103 -108 -78 -80 -76 -53 -41 -97 -26 -22 -29 -26 -30 -28 -46 -47 -154 -279 -472 -0 -182 -0 -140 -0 -0 -0 -0 -248 -183
-0 -0 -0 -0 -0 -0 -0 -0 -0 -324 -230 -113 -153 -146 -131 -123 -190 -210 -115 -109 -54 -91 -31 -20 -32 -32 -36 -29 -33 -54 -104 -268 -0 -0 -0 -89 -83 -0 -0 -70 -0 -0 -193
-0 -0 -0 -0 -0 -0 -0 -0 -252 -250 -227 -211 -170 -140 -201 -243 -195 -181 -97 -83 -79 -126 -65 -27 -33 -36 -29 -37 -41 -52 -147 -0 -0 -0 -0 -0 -0 -0 -0 -0 -0 -0 -0
-0 -182 -212 -0 -0 -0 -0 -0 -0 -244 -204 -251 -154 -143 -178 -186 -210 -166 -62 -115 -92 -112 -73 -54 -32 -34 -33 -35 -42 -65 -237 -0 -0 -0 -0 -0 -0 -0 -0 -0 -0 -0 -0
-98 -98 -222 -298 -0 -0 -0 -0 -0 -0 -236 -187 -206 -152 -120 -147 -215 -204 -138 -108 -141 -107 -96 -66 -33 -28 -32 -31 -40 -112 -299 -308 -0 -0 -0 -0 -0 -0 -0 -0 -0 -0 -0
-222 -251 -218 -213 -248 -260 -239 -234 -203 -206 -192 -172 -209 -198 -141 -101 -110 -203 -224 -120 -97 -74 -67 -44 -63 -32 -29 -33 -59 -133 -277 -301 -0 -0 -0 -0 -0 -0 -0 -0 -0 -0 -0
-217 -221 -245 -216 -203 -249 -205 -170 -181 -135 -129 -139 -141 -155 -155 -161 -126 -131 -250 -174 -184 -26 -28 -56 -53 -28 -26 -30 -55 -125 -211 -455 -0 -0 -0 -0 -0 -0 -0 -0 -0 -0 -0
-153 -248 -243 -235 -176 -166 -171 -147 -128 -127 -106 -115 -109 -101 -106 -113 -138 -156 -269 -0 -203 -76 -11 -49 -36 -34 -29 -31 -43 -112 -269 -444 -0 -0 -0 -0 -0 -0 -0 -0 -0 -0 -0
-236 -269 -242 -230 -130 -194 -181 -108 -114 -108 -109 -114 -112 -105 -99 -110 -110 -127 -256 -141 -123 -126 -31 -23 -25 -23 -25 -30 -35 -70 -221 -340 -0 -0 -0 -0 -0 -0 -0 -0 -0 -0 -0
-208 -222 -203 -177 -171 -171 -201 -168 -73 -98 -101 -102 -122 -115 -116 -116 -102 -115 -145 -115 -101 -89 -45 -36 -43 -38 -21 -21 -29 -34 -126 -319 -145 -0 -0 -0 -0 -0 -0 -0 -0 -0 -0
-318 -314 -349 -315 -272 -272 -230 -261 -181 -139 -88 -95 -114 -116 -121 -127 -111 -116 -121 -140 -117 -145 -124 -80 -72 -59 -54 -19 -22 -31 -67 -150 -0 -0 -0 -0 -0 -0 -0 -0 -0 -0 -0
-280 -334 -361 -466 -487 -336 -278 -249 -265 -356 -0 -192 -78 -74 -116 -121 -127 -124 -113 -116 -137 -134 -170 -149 -102 -83 -70 -42 -27 -35 -89 -0 -0 -0 -0 -0 -0 -0 -0 -0 -0 -0 -0
-290 -353 -426 -366 -364 -361 -286 -214 -135 -52 -80 -0 -166 -118 -81 -122 -129 -117 -119 -110 -103 -102 -124 -148 -132 -90 -72 -42 -37 -57 -146 -0 -0 -0 -0 -0 -0 -0 -0 -0 -0 -0 -0
-205 -311 -393 -305 -395 -435 -371 -214 -4 -0 -553 -315 -189 -165 -121 -89 -133 -123 -120 -108 -99 -76 -79 -117 -127 -116 -104 -39 -32 -66 -165 -0 -0 -0 -0 -0 -0 -0 -0 -0 -0 -0 -0
-304 -350 -236 -243 -212 -221 -162 -156 -261 -321 -322 -211 -172 -123 -115 -90 -97 -97 -95 -93 -86 -63 -57 -62 -81 -87 -98 -83 -51 -77 -0 -0 -0 -0 -0 -0 -0 -0 -0 -0 -0 -0 -0
-360 -245 -227 -233 -263 -288 -277 -242 -185 -161 -157 -146 -161 -115 -72 -51 -57 -53 -57 -73 -60 -45 -28 -32 -35 -51 -71 -84 -89 -98 -0 -0 -0 -0 -0 -0 -0 -0 -0 -0 -0 -0 -0
-361 -283 -250 -247 -309 -334 -336 -219 -119 -207 -146 -78 -122 -81 -12 -34 -23 -25 -26 -38 -27 -24 -20 -21 -25 -25 -35 -75 -130 -140 -0 -0 -0 -0 -0 -0 -0 -0 -0 -0 -0 -0 -0
-395 -258 -331 -384 -389 -379 -361 -237 -278 -378 -324 -247 -179 -142 -104 -60 -34 -10 -16 -23 -16 -12 -17 -19 -23 -23 -22 -98 -133 -128 -164 -0 -0 -0 -0 -0 -0 -0 -0 -0 -0 -0 -0
-405 -304 -356 -392 -438 -479 -426 -370 -394 -424 -438 -337 -243 -171 -127 -123 -43 -18 -18 -19 -15 -16 -24 -24 -23 -21 -30 -103 -147 -149 -179 -0 -0 -0 -0 -0 -0 -0 -0 -0 -0 -0 -0
-322 -363 -377 -415 -376 -468 -450 -443 -456 -566 -427 -312 -200 -126 -74 -40 -25 -22 -16 -12 -11 -10 -16 -19 -27 -32 -35 -80 -176 -160 -176 -0 -0 -0 -0 -0 -0 -0 -0 -0 -0 -0 -0
-252 -297 -37 -401 -386 -51 -57 -495 -567 -558 -441 -288 -230 -197 -99 -48 -55 -18 -11 -12 -12 -9 -11 -21 -27 -20 -44 -74 -157 -192 -234 -0 -0 -0 -0 -0 -0 -0 -0 -0 -0 -0 -0
-219 -0 -0 -285 -0 -0 -0 -0 -134 -571 -438 -299 -287 -276 -198 -150 -135 -125 -127 -91 -64 -44 -37 -52 -61 -52 -54 -76 -192 -83 -0 -0 -0 -0 -0 -0 -0 -0 -0 -0 -0 -0 -0
-119 -0 -0 -0 -128 -0 -0 -0 -0 -154 -431 -382 -411 -326 -257 -196 -153 -343 -423 -289 -430 -235 -291 -308 -288 -123 -95 -219 -0 -176 -264 -0 -0 -0 -0 -0 -0 -0 -0 -0 -0 -0 -0
-105 -57 -0 -0 -0 -0 -0 -0 -0 -0 -361 -390 -408 -377 -272 -251 -193 -188 -291 -0 -0 -0 -0 -0 -0 -0 -0 -0 -0 -0 -0 -0 -0 -0 -0 -0 -0 -0 -0 -0 -0 -0 -0
Wind_Speed
24 25 23 22 24 25 25 25 27 29 29 28 25 24 21 20 19 21 20 18 18 19 18 19 20 22 22 22 22 22 23 25 21 20 19 17 16 14 12 12 13 12 12
19 22 22 21 23 23 24 26 26 26 28 28 27 24 21 19 18 20 18 18 19 19 19 21 23 21 20 24 25 25 23 24 26 21 21 19 19 18 12 11 10 10 9
18 16 22 21 21 20 22 24 26 25 25 26 25 24 21 20 20 18 16 16 16 17 17 20 22 22 22 23 25 26 26 25 23 28 21 21 19 20 15 12 13 9 7
17 14 17 21 20 21 19 22 24 25 24 23 23 22 20 20 19 17 16 16 16 16 17 18 21 21 22 24 25 26 26 25 27 22 27 24 19 19 19 19 18 15 7
21 13 18 20 22 18 19 20 21 23 23 23 23 21 21 21 20 19 17 16 16 16 16 16 18 19 21 23 24 26 27 27 26 25 22 22 23 21 22 20 22 20 20
25 27 20 16 16 17 19 18 20 22 23 23 24 21 19 19 15 8 17 16 16 15 15 15 16 17 19 21 22 24 26 27 26 26 25 24 22 22 23 23 24 25 25
22 25 25 20 15 15 19 17 18 20 22 23 24 23 21 19 20 16 16 15 15 14 15 14 13 15 17 19 21 21 24 26 26 25 25 24 22 22 23 23 25 25 22
19 21 23 24 18 12 16 18 18 18 18 21 24 23 23 19 16 19 18 11 13 16 15 13 12 13 14 16 18 21 22 24 25 26 24 24 24 23 23 23 25 25 24
14 21 18 20 22 15 13 18 18 18 15 18 21 22 22 21 19 19 21 15 16 13 15 13 11 11 12 14 16 18 20 21 23 24 24 24 25 24 25 25 24 24 24
7 4 12 10 9 11 6 12 19 19 16 16 16 18 20 20 20 20 22 20 16 11 13 11 10 10 11 12 13 16 17 19 21 23 25 24 25 25 24 26 26 25 24
14 11 11 14 8 6 4 6 11 25 15 13 12 13 17 17 14 17 19 19 14 7 7 7 6 9 10 9 10 12 14 16 19 21 23 25 24 26 26 26 25 25 24
11 6 6 13 12 13 7 10 11 15 25 22 10 12 13 13 11 17 17 14 10 2 3 3 4 7 9 8 8 10 11 12 16 18 20 23 24 26 26 27 26 23 21
9 11 12 12 12 11 9 6 12 19 25 32 34 16 13 11 13 16 17 11 14 9 2 1 2 3 5 6 6 8 9 10 13 16 18 20 23 24 26 27 28 28 28
10 9 11 15 20 20 18 13 13 18 22 25 33 36 26 16 15 15 15 13 9 13 6 2 2 1 2 4 7 6 9 10 12 14 16 18 20 22 25 26 27 27 28
12 12 14 17 18 17 16 16 24 29 29 31 30 34 37 28 10 13 12 12 6 10 8 2 2 2 1 2 5 6 7 9 12 14 15 18 20 22 23 25 26 26 26
16 14 15 17 16 15 17 16 8 18 26 32 34 34 36 37 19 16 12 9 6 6 6 4 2 3 1 2 2 4 5 7 10 12 14 16 19 22 24 26 27 26 26
15 15 14 15 16 17 15 16 24 31 34 33 32 35 26 28 20 12 10 7 5 5 7 5 3 4 4 2 2 3 4 5 7 10 12 14 16 19 22 25 28 29 30
16 16 16 16 16 17 16 17 24 23 24 29 29 32 37 39 28 6 9 8 3 6 6 4 2 4 4 1 2 3 4 5 7 8 9 11 13 16 18 21 25 27 29
17 17 16 17 17 18 20 21 21 22 21 21 24 35 40 36 30 9 8 5 4 4 5 4 3 3 4 2 3 4 4 5 6 7 8 9 11 12 15 18 21 24 26
18 18 19 19 19 20 19 19 22 25 28 28 29 29 26 26 32 36 7 10 6 4 4 4 2 2 2 4 3 4 4 4 6 7 7 7 8 10 12 14 17 20 22
19 19 20 21 21 21 20 20 21 26 29 31 32 31 26 27 29 35 21 18 13 8 5 5 4 7 8 6 3 4 4 5 5 6 5 6 7 8 9 10 13 15 18
22 21 22 23 23 23 22 23 24 26 25 26 26 24 22 19 14 18 23 23 19 17 15 14 12 10 10 5 2 5 4 5 5 5 6 6 6 8 10 9 9 13 16
24 24 23 24 24 24 24 25 25 25 25 25 24 23 21 18 17 16 17 17 19 19 19 18 13 4 2 2 5 9 7 7 6 5 5 7 9 8 8 10 11 12 13
26 25 24 24 24 24 24 25 26 26 24 24 24 23 21 20 18 18 16 17 18 18 18 18 17 18 13 6 4 7 2 3 4 5 6 7 9 9 8 8 8 9 11
26 27 27 25 24 23 24 25 25 25 24 23 23 23 23 22 19 18 18 17 18 18 19 19 19 19 17 14 13 3 2 1 2 4 5 4 4 5 6 7 6 6 8
26 26 26 24 23 24 25 24 25 24 24 22 22 22 22 21 19 19 18 17 17 18 18 19 20 21 21 22 20 10 5 2 3 0 0 1 1 2 4 5 8 6 6
Wind_Direction
151 149 143 139 143 147 149 148 149 156 161 169 171 180 179 159 136 133 133 117 105 106 110 96 86 80 75 72 69 69 60 45 62 57 58 66 66 71 73 69 62 63 69
138 147 146 142 145 145 150 154 155 155 160 170 173 172 176 158 135 126 124 104 96 99 97 74 62 83 84 62 55 54 55 49 42 58 56 51 51 46 62 58 59 57 65
145 140 150 149 146 145 147 152 158 155 156 163 165 181 194 161 121 124 116 115 111 112 109 77 71 77 71 60 52 49 47 49 57 39 58 49 46 39 49 47 45 42 48
158 144 146 153 152 152 145 150 156 159 159 157 157 157 158 156 150 142 141 136 129 113 107 93 74 74 66 51 48 46 48 48 39 55 43 48 52 43 36 43 41 33 28
170 159 154 156 159 151 151 150 153 158 163 166 165 163 168 172 179 184 156 124 137 123 110 109 81 75 61 51 50 43 44 45 42 45 51 47 42 44 37 31 26 32 28
175 175 165 157 155 156 154 151 153 160 164 168 172 172 167 165 147 29 155 160 147 139 118 117 88 80 66 51 52 46 42 42 45 41 43 45 46 41 38 34 30 30 34
172 176 173 165 156 154 160 156 156 159 163 167 174 177 175 169 174 156 163 155 155 173 151 130 94 85 70 57 54 48 43 41 42 45 42 45 45 45 43 37 33 33 40
171 177 176 174 168 157 156 160 160 160 159 166 174 176 180 171 163 175 175 132 162 206 143 134 108 94 76 60 53 46 43 41 42 41 43 43 41 42 43 41 35 33 36
175 174 176 173 172 161 156 160 162 163 159 164 170 174 177 180 175 181 192 170 181 146 142 131 116 85 78 61 54 48 43 43 42 41 43 42 40 41 42 42 41 37 36
227 223 229 200 227 248 176 156 162 165 164 164 166 172 177 180 184 186 196 189 174 142 155 134 101 78 60 57 56 48 45 42 41 40 40 42 40 42 43 41 42 44 44
262 276 275 257 201 240 206 225 166 175 164 166 169 171 178 179 173 180 185 187 169 137 134 121 68 39 39 59 51 48 48 45 42 39 39 39 43 40 41 41 43 45 48
286 292 295 256 262 267 268 287 267 191 183 182 173 177 178 180 179 183 181 175 167 98 56 89 47 31 28 48 48 42 48 47 42 39 39 39 41 39 42 41 43 44 50
311 290 278 278 279 289 266 291 290 273 265 251 242 182 180 182 185 187 188 178 185 178 152 45 62 46 36 42 40 41 43 50 43 40 39 39 40 41 41 42 44 48 55
319 328 309 276 275 281 273 259 282 275 275 274 251 239 200 182 184 184 184 180 175 186 178 180 180 111 76 62 27 43 40 47 43 40 39 40 40 43 42 44 48 54 55
307 310 307 292 296 289 293 270 267 266 266 262 265 246 229 206 174 176 174 173 164 174 176 134 136 83 95 83 38 43 44 46 39 39 39 38 43 45 47 48 52 54 55
326 315 317 303 316 309 295 278 318 271 273 267 263 260 247 222 180 175 174 171 169 175 183 185 175 181 102 89 82 60 56 45 38 39 40 43 47 46 50 50 52 54 55
339 347 327 327 320 335 327 302 281 276 273 266 270 259 263 196 187 179 178 181 185 185 191 194 194 196 188 136 81 80 70 66 49 44 50 50 52 53 51 49 48 51 53
332 346 344 341 332 336 333 309 286 286 283 271 271 261 246 223 223 229 194 188 214 194 202 213 244 209 204 168 77 83 78 76 73 59 63 61 62 60 58 54 51 52 54
326 333 346 345 340 332 315 301 293 290 293 295 274 250 231 222 214 199 212 266 258 227 210 213 223 210 198 161 75 69 82 88 82 66 67 73 70 71 64 57 55 55 56
327 326 324 330 334 339 330 313 297 291 286 289 283 277 274 267 252 242 260 297 288 257 230 226 247 210 335 20 109 87 90 96 76 78 77 88 80 84 76 65 62 58 61
324 327 325 322 325 326 330 317 309 298 291 286 284 282 285 278 266 248 286 298 307 311 308 313 326 332 336 351 125 124 115 116 97 92 93 89 95 95 92 83 72 67 68
309 317 317 316 316 317 319 317 309 303 300 294 292 296 293 292 291 296 288 292 303 311 315 320 326 329 335 351 141 161 141 124 107 101 100 106 105 94 81 93 89 80 72
304 306 311 311 315 313 311 305 306 302 297 297 298 299 303 307 309 303 306 311 310 310 312 314 323 351 357 23 148 158 148 142 127 108 98 114 124 108 63 46 79 91 78
301 302 308 309 307 307 308 305 302 300 298 295 297 301 301 303 306 302 308 311 312 315 316 318 318 319 331 353 360 159 70 92 85 85 94 114 119 120 102 69 70 86 88
302 301 300 304 304 306 305 301 301 301 295 296 296 296 299 297 298 307 308 314 314 318 318 321 318 317 319 327 326 330 197 159 111 70 71 100 117 119 101 92 90 55 83
298 300 303 303 299 300 302 301 296 295 292 293 295 294 295 298 299 299 303 318 320 321 325 324 319 313 311 311 318 320 305 247 171 126 190 205 186 144 127 109 114 97 95